TimeMDT,TemperatureF,Dew PointF,Humidity,Sea Level PressureIn,VisibilityMPH,Wind Direction,Wind SpeedMPH,Gust SpeedMPH,PrecipitationIn,Events,Conditions,WindDirDegrees,DateUTC
12:54 AM,66.9,51.1,57,29.79,10.0,NNE,3.5,-,N/A,,Scattered Clouds,30,2013-08-02 06:54:00
1:54 AM,68.0,48.9,50,29.78,10.0,NNE,4.6,-,N/A,,Scattered Clouds,30,2013-08-02 07:54:00
2:54 AM,69.1,48.9,49,29.80,10.0,SE,5.8,-,N/A,,Mostly Cloudy,130,2013-08-02 08:54:00
3:54 AM,66.0,50.0,56,29.81,10.0,Calm,Calm,-,N/A,,Clear,0,2013-08-02 09:54:00
4:54 AM,64.0,52.0,65,29.84,10.0,WNW,6.9,-,N/A,,Partly Cloudy,300,2013-08-02 10:54:00
5:54 AM,64.9,46.0,50,29.84,10.0,NNW,9.2,-,N/A,,Scattered Clouds,340,2013-08-02 11:54:00
6:54 AM,70.0,45.0,41,29.84,10.0,NNW,11.5,-,N/A,,Partly Cloudy,340,2013-08-02 12:54:00
7:54 AM,73.0,46.0,38,29.85,10.0,North,11.5,-,N/A,,Partly Cloudy,350,2013-08-02 13:54:00
8:54 AM,78.1,46.0,32,29.86,10.0,NNW,11.5,19.6,N/A,,Partly Cloudy,340,2013-08-02 14:54:00
9:54 AM,81.0,46.0,29,29.85,10.0,North,10.4,-,N/A,,Partly Cloudy,360,2013-08-02 15:54:00
10:54 AM,84.9,44.1,24,29.85,10.0,North,11.5,20.7,N/A,,Scattered Clouds,360,2013-08-02 16:54:00
11:54 AM,87.1,42.1,21,29.84,10.0,NNE,12.7,18.4,N/A,,Mostly Cloudy,30,2013-08-02 17:54:00
12:54 PM,87.1,42.1,21,29.83,10.0,East,12.7,19.6,N/A,,Mostly Cloudy,100,2013-08-02 18:54:00
1:54 PM,89.1,41.0,19,29.82,10.0,ESE,5.8,-,N/A,,Mostly Cloudy,110,2013-08-02 19:54:00
2:54 PM,88.0,41.0,19,29.81,10.0,SSE,4.6,19.6,N/A,,Mostly Cloudy,150,2013-08-02 20:54:00
3:54 PM,87.1,43.0,21,29.81,10.0,SE,15.0,19.6,N/A,,Mostly Cloudy,130,2013-08-02 21:54:00
4:23 PM,84.2,42.8,23,30.12,10.0,SE,11.5,-,0.00,Rain-Thunderstorm,Light Thunderstorms and Rain,140,2013-08-02 22:23:00
4:46 PM,84.2,42.8,23,30.14,10.0,SE,12.7,-,0.00,Thunderstorm,Thunderstorm,140,2013-08-02 22:46:00
4:54 PM,84.0,43.0,24,29.87,10.0,Variable,3.5,-,0.00,Thunderstorm,Thunderstorm,0,2013-08-02 22:54:00
5:29 PM,71.6,53.6,53,30.16,6.0,East,24.2,41.4,0.15,Rain-Thunderstorm,Light Thunderstorms and Rain,100,2013-08-02 23:29:00
5:32 PM,71.6,53.6,53,30.16,7.0,East,21.9,41.4,0.15,Rain-Thunderstorm,Light Thunderstorms and Rain,90,2013-08-02 23:32:00
5:54 PM,73.9,55.0,52,29.91,10.0,East,17.3,-,0.15,Thunderstorm,Thunderstorm,90,2013-08-02 23:54:00
6:13 PM,73.4,53.6,50,30.16,10.0,East,18.4,23.0,N/A,,Mostly Cloudy,90,2013-08-03 00:13:00
6:54 PM,75.0,51.1,43,29.89,10.0,ENE,9.2,18.4,N/A,,Mostly Cloudy,60,2013-08-03 00:54:00
7:54 PM,75.0,50.0,41,29.92,10.0,WNW,16.1,-,N/A,,Overcast,290,2013-08-03 01:54:00
8:23 PM,71.6,51.8,50,30.21,10.0,South,3.5,-,0.00,Thunderstorm,Thunderstorm,180,2013-08-03 02:23:00
8:49 PM,71.6,53.6,53,30.24,10.0,West,9.2,-,0.00,Rain,Light Rain,280,2013-08-03 02:49:00
8:54 PM,71.1,53.1,53,29.96,10.0,WNW,8.1,-,0.00,,Overcast,300,2013-08-03 02:54:00
9:54 PM,68.0,54.0,61,29.94,10.0,NNE,5.8,-,N/A,,Mostly Cloudy,30,2013-08-03 03:54:00
10:54 PM,66.9,54.0,63,29.93,10.0,North,5.8,-,N/A,,Scattered Clouds,350,2013-08-03 04:54:00
11:54 PM,68.0,53.1,59,29.94,10.0,ESE,6.9,-,N/A,,Scattered Clouds,120,2013-08-03 05:54:00